Location: Dessau
(51.7984°N, 12.2168°E)
Time: 11:44:04
(UTC+02:00)

ISS - Visible Passes

Search period start: 13 May 2021 00:00
Search period end: 23 May 2021 00:00
Orbit: 417 x 422 km, 51.6° (Epoch: 13 May)

Date Brightness Start Highest point End Pass type
(mag) Time Alt. Az. Time Alt. Az. Time Alt. Az.
13 May -1.4 00:32:07 15° E 00:32:07 15° E 00:32:47 10° E visible
13 May -3.9 02:05:02 37° W 02:06:14 90° S 02:09:37 10° E visible
13 May -3.7 03:39:39 10° W 03:43:00 59° SSW 03:46:21 10° ESE visible
14 May -3.9 01:18:39 81° SW 01:18:47 86° S 01:22:11 10° E visible
14 May -3.9 02:52:13 10° W 02:55:35 72° SSW 02:58:58 10° ESE visible
14 May -2.6 04:29:15 10° W 04:32:05 25° SSW 04:34:55 10° SSE visible
14 May -2.9 22:51:53 10° SSW 22:54:49 28° SSE 22:55:35 25° SE visible
15 May -3.9 00:27:59 10° WSW 00:31:21 77° S 00:34:44 10° E visible
15 May -3.9 02:04:47 10° W 02:08:09 83° SSW 02:11:34 10° E visible
15 May -3.1 03:41:40 10° W 03:44:46 34° SSW 03:47:52 10° SE visible
15 May -2.4 22:04:58 10° SSW 22:07:32 20° SE 22:10:06 10° E visible
15 May -3.9 23:40:36 10° WSW 23:43:56 64° SSE 23:47:17 10° E visible
16 May -3.9 01:17:20 10° W 01:20:43 89° S 01:24:07 10° E visible
16 May -3.5 02:54:10 10° W 02:57:26 45° SSW 03:00:41 10° SE visible
16 May -1.8 04:32:07 10° WSW 04:33:38 12° SW 04:35:07 10° SSW visible
16 May -3.6 22:53:16 10° SW 22:56:33 50° SSE 22:59:49 10° E visible
17 May -3.9 00:29:53 10° W 00:33:16 90° SSE 00:36:40 10° E visible
17 May -3.8 02:06:43 10° W 02:10:03 59° SSW 02:13:23 10° ESE visible
17 May -2.3 03:44:01 10° W 03:46:24 18° SW 03:48:45 10° S visible
17 May -3.2 22:06:01 10° SW 22:09:11 38° SSE 22:12:21 10° E visible
17 May -3.9 23:42:27 10° W 23:45:49 86° S 23:49:13 10° E visible
18 May -3.9 01:19:16 10° W 01:22:38 72° SSW 01:22:56 66° SSE visible
18 May -3.9 22:55:01 10° WSW 22:58:23 77° S 23:01:46 10° E visible
19 May -3.9 00:31:48 10° W 00:35:12 83° S 00:36:32 34° ESE visible
19 May -1.6 02:08:43 10° W 02:09:26 15° W 02:09:26 15° W visible
19 May -3.8 22:07:37 10° WSW 22:10:58 64° SSE 22:14:18 10° E visible
19 May -3.8 23:44:22 10° W 23:47:44 89° SSW 23:50:21 16° E visible
20 May -2.6 01:21:12 10° W 01:23:16 31° WSW 01:23:16 31° WSW visible
20 May -3.8 22:56:54 10° W 23:00:18 90° SE 23:03:40 10° E visible
21 May -3.8 00:33:44 10° W 00:37:04 58° SSW 00:37:12 58° S visible
21 May -3.8 22:09:27 10° W 22:12:50 86° S 22:16:13 10° E visible
21 May -3.9 23:46:16 10° W 23:49:38 72° SSW 23:51:10 29° ESE visible
22 May -1.5 01:23:18 10° W 01:24:06 15° W 01:24:06 15° W visible
22 May -3.8 22:58:49 10° W 23:02:12 82° S 23:05:10 13° ESE visible
